Briefing drone pour Saint-priest-en-jarez

Rechercher une autre localisation

Conditions de vol :


Nous sommes le : Dimanche 02 octobre 2022
Il est 07:02 UTC (09:02 LT)

Lever de soleil : 05:15 UTC (07:15 LT)
Coucher de soleil : 17:48 UTC (19:48 LT)

Météo

L'essentiel des conditions de vol

VIGILANCE MÉTÉO FRANCE - Loire (42)
Pas de vigilances particulieres
CARTES DES FRONTS
METAR de LFMH
LFMH 020630Z AUTO 16006KT 9999 FEW040 15/13 Q1025

Date d'émission: 02/10/2022
Heure d'émission: 06:30 UTC
Vent: 160° pour 6 KT (11 km/h)
Visibilité horizontale: > 10 km
Plafond :
- Peu de nuages à 4000ft (1219m)
Température: 15 °C
Point de rosée: 13 °C
Humidité: 88%
Pression (QNH): 1025 hPa
TAF de LFMH
LFMH 161901Z 1619/1712 CNL

Conditions prévues :

Heure d'émission : Bulletin éffectué le 16 à 19:00 UTC
Prévision : Valide du 16 a 19:00 UTC au 17 a 12:00 UTC
Nuages : à 0ft (0 m)
WEBCAM POUR SAINT-PRIEST-EN-JAREZ

Réglementation

Voler en sécurité

CARTES AERONAUTIQUE 1/500.000
CARTE AZBA (Reseau basse altitude)
CARTES VAC (LFMH)
SUP AIP




Chargement des AIP...
NOTAM (SAINT-PRIEST-EN-JAREZ + Terrain à proximité / FIR )




Chargement des NOTAMS...
CONTACT PREFECTURE 42


Avertissement : Les données mises à disposition sont indicatives. Oxygène Drone ne pourra être tenu responsable de dégâts causés aux biens et aux personnes.